• In United States
  • List of Countries
  • For 7 days
  • Water Temperature
  • Satellite Maps
  • Weather Map
  • Weather Widgets
  • user-avatar
    Login

    Hourly Weather Tibissa

    Today, 20 June, Wednesday

    Time Temperature Precipitation Wind Pressure Humidity
    00:00 +20°C° 0 mm 4 mps 687 mmHg 64%
    01:00 +19°C° 0 mm 3 mps 687 mmHg 67%
    02:00 +19°C° 0 mm 3 mps 687 mmHg 69%
    03:00 +18°C° 0 mm 2 mps 687 mmHg 71%
    04:00 +18°C° 0 mm 2 mps 687 mmHg 73%
    05:00 +18°C° 0 mm 2 mps 687 mmHg 71%
    06:00 +19°C° 0 mm 2 mps 687 mmHg 69%
    07:00 +19°C° 0 mm 2 mps 687 mmHg 67%
    08:00 +20°C° 0 mm 2 mps 688 mmHg 61%
    09:00 +21°C° 0 mm 2 mps 688 mmHg 54%
    10:00 +24°C° 0 mm 3 mps 688 mmHg 47%
    11:00 +24°C° 0 mm 2 mps 688 mmHg 44%
    12:00 +25°C° 0 mm 2 mps 688 mmHg 41%
    13:00 +26°C° 0 mm 2 mps 688 mmHg 37%
    14:00 +26°C° 0 mm 2 mps 688 mmHg 37%
    15:00 +26°C° 0 mm 2 mps 688 mmHg 37%
    16:00 +26°C° 0 mm 2 mps 688 mmHg 37%
    17:00 +26°C° 0 mm 2 mps 688 mmHg 37%
    18:00 +26°C° 0 mm 2 mps 688 mmHg 38%
    19:00 +26°C° 0 mm 2 mps 688 mmHg 39%
    20:00 +25°C° 0 mm 2 mps 688 mmHg 41%
    21:00 +25°C° 0 mm 2 mps 688 mmHg 44%
    22:00 +24°C° 0 mm 2 mps 689 mmHg 46%
    23:00 +24°C° 0 mm 3 mps 688 mmHg 50%

    Tomorrow, 21 June, Thursday

    Time Temperature Precipitation Wind Pressure Humidity
    00:00 +22°C° 0 mm 3 mps 688 mmHg 53%
    01:00 +22°C° 0 mm 3 mps 688 mmHg 57%
    02:00 +21°C° 0 mm 2 mps 688 mmHg 61%
    03:00 +20°C° 0 mm 2 mps 687 mmHg 64%
    04:00 +20°C° 0 mm 2 mps 687 mmHg 68%
    05:00 +20°C° 0 mm 2 mps 687 mmHg 66%
    06:00 +21°C° 0 mm 2 mps 687 mmHg 65%
    07:00 +21°C° 0 mm 2 mps 687 mmHg 63%
    08:00 +24°C° 0.2 mm 2 mps 688 mmHg 56%
    09:00 +25°C° 0.2 mm 2 mps 688 mmHg 48%
    10:00 +26°C° 0.2 mm 3 mps 689 mmHg 41%
    11:00 +27°C° 0.1 mm 3 mps 688 mmHg 40%
    12:00 +27°C° 0.1 mm 2 mps 688 mmHg 38%
    13:00 +27°C° 0.1 mm 2 mps 688 mmHg 37%
    14:00 +27°C° 0.6 mm 2 mps 688 mmHg 38%
    15:00 +27°C° 0.6 mm 2 mps 687 mmHg 40%
    16:00 +27°C° 0.6 mm 3 mps 687 mmHg 42%
    17:00 +26°C° 0.4 mm 3 mps 687 mmHg 45%
    18:00 +25°C° 0.4 mm 3 mps 687 mmHg 48%
    19:00 +24°C° 0.4 mm 3 mps 686 mmHg 52%
    20:00 +24°C° 0.3 mm 3 mps 687 mmHg 53%
    21:00 +24°C° 0.3 mm 2 mps 687 mmHg 55%
    22:00 +23°C° 0.3 mm 2 mps 687 mmHg 57%
    23:00 +23°C° 0 mm 2 mps 687 mmHg 58%

    Day after tomorrow, 22 June, Friday

    Time Temperature Precipitation Wind Pressure Humidity
    00:00 +23°C° 0 mm 1 mps 687 mmHg 59%
    01:00 +23°C° 0 mm 1 mps 686 mmHg 60%
    02:00 +22°C° 0 mm 1 mps 686 mmHg 60%
    03:00 +22°C° 0 mm 1 mps 686 mmHg 60%
    04:00 +22°C° 0 mm 1 mps 686 mmHg 59%
    05:00 +23°C° 0 mm 2 mps 686 mmHg 56%
    06:00 +23°C° 0 mm 2 mps 686 mmHg 52%
    07:00 +24°C° 0 mm 2 mps 687 mmHg 49%
    08:00 +26°C° 0 mm 3 mps 687 mmHg 43%
    09:00 +27°C° 0 mm 4 mps 687 mmHg 38%
    10:00 +29°C° 0 mm 5 mps 688 mmHg 33%
    11:00 +30°C° 0 mm 5 mps 688 mmHg 31%
    12:00 +30°C° 0 mm 5 mps 687 mmHg 29%
    13:00 +32°C° 0 mm 5 mps 687 mmHg 26%
    14:00 +32°C° 0 mm 4 mps 687 mmHg 26%
    15:00 +32°C° 0 mm 4 mps 687 mmHg 26%
    16:00 +32°C° 0 mm 4 mps 687 mmHg 25%
    17:00 +32°C° 0 mm 4 mps 686 mmHg 27%
    18:00 +30°C° 0 mm 4 mps 686 mmHg 29%
    19:00 +30°C° 0 mm 4 mps 686 mmHg 31%
    20:00 +29°C° 0 mm 4 mps 687 mmHg 35%
    21:00 +28°C° 0 mm 4 mps 687 mmHg 39%
    22:00 +26°C° 0 mm 3 mps 687 mmHg 43%
    23:00 +26°C° 0 mm 3 mps 687 mmHg 46%

    23 June, Saturday

    Time Temperature Precipitation Wind Pressure Humidity
    00:00 +25°C° 0 mm 2 mps 687 mmHg 49%
    01:00 +24°C° 0 mm 2 mps 687 mmHg 51%
    02:00 +23°C° 0 mm 2 mps 686 mmHg 52%
    03:00 +23°C° 0 mm 1 mps 686 mmHg 54%
    04:00 +22°C° 0 mm 1 mps 686 mmHg 55%
    05:00 +23°C° 0 mm 1 mps 686 mmHg 52%
    06:00 +23°C° 0 mm 1 mps 687 mmHg 50%
    07:00 +24°C° 0 mm 1 mps 687 mmHg 48%
    08:00 +25°C° 0 mm 1 mps 687 mmHg 44%
    09:00 +27°C° 0 mm 1 mps 687 mmHg 40%
    10:00 +28°C° 0 mm 1 mps 688 mmHg 36%
    11:00 +29°C° 0 mm 1 mps 688 mmHg 32%
    12:00 +31°C° 0 mm 2 mps 688 mmHg 29%
    13:00 +33°C° 0 mm 3 mps 688 mmHg 25%
    14:00 +34°C° 0 mm 4 mps 688 mmHg 23%
    15:00 +35°C° 0 mm 4 mps 687 mmHg 21%
    16:00 +35°C° 0 mm 5 mps 687 mmHg 18%
    17:00 +34°C° 0 mm 5 mps 687 mmHg 20%
    18:00 +34°C° 0 mm 5 mps 687 mmHg 21%
    19:00 +33°C° 0 mm 5 mps 687 mmHg 22%
    20:00 +32°C° 0 mm 4 mps 687 mmHg 27%
    21:00 +29°C° 0 mm 3 mps 687 mmHg 31%
    22:00 +28°C° 0 mm 3 mps 688 mmHg 35%
    23:00 +27°C° 0.1 mm 2 mps 687 mmHg 38%

    24 June, Sunday

    Time Temperature Precipitation Wind Pressure Humidity
    00:00 +27°C° 0.1 mm 2 mps 687 mmHg 42%
    01:00 +26°C° 0.1 mm 1 mps 686 mmHg 45%
    02:00 +25°C° 0 mm 1 mps 686 mmHg 48%
    03:00 +25°C° 0 mm 1 mps 685 mmHg 50%
    04:00 +22°C° 0 mm 0 mps 685 mmHg 53%
    05:00 +23°C° 0 mm 0 mps 685 mmHg 49%
    06:00 +26°C° 0 mm 1 mps 686 mmHg 46%
    07:00 +26°C° 0 mm 1 mps 686 mmHg 43%
    08:00 +28°C° 0 mm 2 mps 687 mmHg 37%
    09:00 +30°C° 0 mm 3 mps 687 mmHg 32%
    10:00 +33°C° 0 mm 4 mps 687 mmHg 27%
    11:00 +34°C° 0 mm 4 mps 687 mmHg 24%
    12:00 +36°C° 0 mm 5 mps 687 mmHg 21%
    13:00 +38°C° 0 mm 6 mps 687 mmHg 18%
    14:00 +38°C° 0 mm 6 mps 686 mmHg 19%
    15:00 +38°C° 0 mm 6 mps 686 mmHg 19%
    16:00 +38°C° 0 mm 6 mps 685 mmHg 19%
    17:00 +36°C° 0.1 mm 6 mps 685 mmHg 22%
    18:00 +34°C° 0.1 mm 7 mps 685 mmHg 25%
    19:00 +33°C° 0.1 mm 7 mps 685 mmHg 28%
    20:00 +32°C° 0.2 mm 6 mps 685 mmHg 33%
    21:00 +29°C° 0.2 mm 5 mps 685 mmHg 38%
    22:00 +27°C° 0.2 mm 4 mps 685 mmHg 43%
    23:00 +27°C° 0.1 mm 3 mps 685 mmHg 43%

    25 June, Monday

    Time Temperature Precipitation Wind Pressure Humidity
    00:00 +26°C° 0.1 mm 3 mps 684 mmHg 44%
    01:00 +26°C° 0.1 mm 3 mps 684 mmHg 45%
    02:00 +25°C° 0.1 mm 3 mps 684 mmHg 47%
    03:00 +25°C° 0.1 mm 2 mps 683 mmHg 48%
    04:00 +25°C° 0.1 mm 2 mps 683 mmHg 50%
    05:00 +25°C° 0.2 mm 3 mps 683 mmHg 50%
    06:00 +25°C° 0.2 mm 3 mps 684 mmHg 49%
    07:00 +25°C° 0.2 mm 3 mps 684 mmHg 49%
    08:00 +26°C° 0 mm 4 mps 684 mmHg 43%
    09:00 +27°C° 0 mm 5 mps 685 mmHg 38%
    10:00 +29°C° 0 mm 6 mps 685 mmHg 32%
    11:00 +29°C° 0 mm 6 mps 685 mmHg 30%
    12:00 +30°C° 0 mm 7 mps 685 mmHg 29%
    13:00 +32°C° 0 mm 7 mps 685 mmHg 27%
    14:00 +32°C° 0 mm 8 mps 685 mmHg 27%
    15:00 +32°C° 0 mm 8 mps 685 mmHg 28%
    16:00 +32°C° 0 mm 8 mps 685 mmHg 28%
    17:00 +31°C° 0 mm 8 mps 685 mmHg 30%
    18:00 +28°C° 0 mm 8 mps 685 mmHg 32%
    19:00 +27°C° 0 mm 8 mps 685 mmHg 34%
    20:00 +26°C° 0 mm 7 mps 685 mmHg 37%
    21:00 +24°C° 0 mm 7 mps 686 mmHg 41%
    22:00 +22°C° 0 mm 6 mps 686 mmHg 44%
    23:00 +22°C° 0 mm 6 mps 686 mmHg 45%
    Show more